Location: Pinon Hills
(34.4429°N, 117.6403°W)
Time: 09:06:48
(UTC-07:00)

Daily predictions for brighter satellites

Satellite Brightness Start Highest point End
(mag) Time Altitude Azimuth Time Altitude Azimuth Time Altitude Azimuth
NOSS 2-2 (C) 3.4 20:14:38 10° SSW 20:18:38 76° ESE 20:23:05 10° NE
USA 186 2.2 20:17:07 10° SSE 20:20:00 42° ENE 20:23:05 10° N
Cosmos 2181 Rocket 4.1 20:16:46 10° N 20:23:15 83° E 20:29:35 10° S
CZ-4B DEB 3.6 20:20:30 10° S 20:23:43 56° W 20:26:57 10° NNW
PSLV R/B 4.3 20:21:11 10° NW 20:24:26 40° NNE 20:27:44 10° E
ERBS 3.6 20:22:37 10° NNW 20:25:44 30° NE 20:28:49 10° ESE
Envisat 4.4 20:24:02 10° ESE 20:27:45 21° ENE 20:31:27 10° NNE
ATLAS 5 CENTAUR R/B 2.9 20:22:15 10° NNW 20:28:06 46° NE 20:34:17 10° SE
GPS 2-05 Rocket1 3.3 20:25:40 10° SW 20:29:13 45° SSE 20:32:44 10° E
Cosmos 1624 Rocket 4.0 20:24:13 10° S 20:29:25 69° ESE 20:34:41 10° NNE
OPS 6432 4.4 20:26:07 10° SSW 20:29:54 86° WNW 20:33:04 10° NNE
Okean 1-7 3.3 20:27:40 10° N 20:31:58 74° W 20:36:16 10° S
CZ-4 DEB 3.5 20:30:36 10° SE 20:33:31 35° ENE 20:36:27 10° N
Abrixas rocket 2.7 20:31:44 10° WNW 20:35:05 58° SW 20:38:25 10° SE
COSMOS 2406 3.6 20:30:15 10° N 20:35:47 47° ENE 20:41:15 10° SE
NOSS 2-2 (E) 4.2 20:33:03 10° SW 20:37:05 60° WNW 20:41:40 10° NNE
Cosmos 2074 Rocket 4.0 20:30:55 10° S 20:37:06 66° E 20:43:18 10° NNE
Cosmos 1825 4.0 20:39:29 11° ESE 20:41:11 15° E 20:43:20 10° NE
Cosmos 1408 4.4 20:41:19 12° ESE 20:42:41 14° E 20:44:42 10° NE
Resurs 01 Rocket 4.1 20:40:14 10° SSW 20:43:38 22° W 20:47:04 10° NW
Cosmos 2278 Rocket 3.1 20:39:07 10° SSE 20:43:47 27° ESE 20:48:28 10° NE
ERS-1 Rocket 3.3 20:42:51 10° SSE 20:47:41 49° ENE 20:52:32 10° N
Cosmos 1844 4.0 20:42:28 10° S 20:47:57 48° ESE 20:53:29 10° NNE
Cosmos 407 Rocket 4.4 20:43:22 10° N 20:48:08 33° ENE 20:52:01 14° SE
Cosmos 1844 Rocket 2.6 20:43:31 10° S 20:49:08 69° ESE 20:54:45 10° NNE
Cosmos 1674 Rocket 4.1 20:45:15 10° N 20:49:26 39° E 20:53:05 13° SSE
Sich 1 Rocket 4.0 20:47:58 10° SSE 20:52:18 44° E 20:56:40 10° NNE
Cosmos 1452 Rocket 3.9 20:48:38 10° S 20:53:32 41° ESE 20:58:27 10° NNE
Meteosat 1 Rocket2 4.4 20:51:15 10° WSW 20:56:40 51° S 21:04:00 13° ESE
Centaur AC-119 3.1 20:55:21 10° SW 20:56:49 14° S 20:57:11 14° S
Cosmos 1862 4.2 20:54:56 15° SE 20:57:40 29° E 21:01:14 10° NNE
FENGYUN 3A 4.4 20:54:26 10° S 20:59:42 53° W 21:04:58 10° NNW
Meteor 1-10 Rocket 4.3 20:54:06 10° N 20:59:54 68° E 21:05:32 10° SSE
Cosmos 1190 Rocket 4.1 20:56:50 10° N 21:01:57 56° ENE 21:05:50 17° SE
Coronas F rocket 3.2 21:01:49 10° SW 21:04:11 30° W 21:06:36 10° NNW
BREEZE-M DEB (TANK) 2.2 21:03:25 10° NW 21:05:29 64° NE 21:07:23 23° ESE
EO 1 Delta rocket 4.3 21:01:47 10° NNE 21:07:34 53° E 21:12:16 10° S
NOSS 5 (C) 4.2 21:05:44 10° SSW 21:09:28 81° ESE 21:12:37 10° NNE
Meteor 2-10 Rocket 4.0 21:04:08 10° NNW 21:09:54 71° W 21:15:29 10° S
Cosmos 1184 Rocket 3.9 21:12:21 26° E 21:12:32 26° E 21:15:23 10° NE
USA 234 4.1 21:09:13 10° ENE 21:14:21 24° ESE 21:19:27 10° S
Cosmos 2341 Rocket 4.2 21:09:51 11° SSE 21:15:41 49° E 21:21:42 10° NNE
Cosmos 1975 Rocket 4.2 21:15:32 10° NNE 21:19:08 25° ENE 21:20:00 24° E
TIMED 4.5 21:17:54 10° SSW 21:22:15 88° WNW 21:26:39 10° NNE
PSLV R/B 4.3 21:22:39 26° ENE 21:22:39 26° ENE 21:25:01 10° NNE
Cosmos 1606 2.8 21:20:23 10° N 21:24:16 59° E 21:25:47 33° SSE
Cosmos 1908 Rocket 3.5 21:20:47 11° S 21:25:04 84° E 21:29:31 10° N
Cosmos 1782 3.1 21:23:51 10° NNW 21:27:52 66° W 21:30:42 18° S
Meteor 1-27 Rocket 3.6 21:22:56 10° N 21:28:30 69° E 21:31:46 25° SSE
H-2A R/B 2.4 21:28:51 10° WSW 21:29:11 13° WSW 21:29:11 13° WSW
deb Chang Zheng 4 4.0 21:27:31 10° N 21:31:54 66° WNW 21:36:18 10° SSW
Cosmos 676 Rocket 4.0 21:27:13 10° N 21:32:24 64° ENE 21:34:45 32° SE
Cosmos 1378 Rocket 3.6 21:28:11 10° N 21:32:26 59° E 21:33:55 37° SE
Cosmos 2084 3.5 21:28:58 10° SW 21:32:49 66° WNW 21:36:38 10° NNE
Cosmos 1939 Rocket 3.0 21:30:37 23° S 21:32:53 65° W 21:36:47 10° NNW
Cosmos 962 Rocket 4.4 21:27:57 13° S 21:33:21 69° E 21:39:32 10° NNE
Centaur D-1A AC-32 3.3 21:30:38 10° SW 21:34:25 23° S 21:34:25 23° S
Cosmos 1174 3.6 21:32:51 10° NNW 21:35:46 42° NE 21:35:46 42° NE
Cosmos 1954 Rocket 4.2 21:32:41 10° N 21:37:48 54° ENE 21:39:39 36° SE
USA 245 4.2 21:38:17 26° ENE 21:38:17 26° ENE 21:41:05 10° N
ISS -2.3 21:34:55 10° WSW 21:38:04 46° NW 21:41:13 10° NE
COS B Rocket 3.1 21:34:35 10° N 21:38:38 88° W 21:39:59 38° S
CENTAUR R/B 3.8 21:31:53 10° NW 21:39:32 49° WSW 21:46:17 15° S
SL-27 R/B 3.7 21:38:09 10° NNW 21:41:33 38° WSW 21:43:10 24° SSW
Cosmos 2154 Rocket 4.1 21:37:23 10° S 21:43:37 75° W 21:49:49 10° N
Atlas Centaur 2 1.9 21:43:28 10° WSW 21:46:18 35° SSW 21:46:18 35° SSW
Cosmos 1238 Rocket 2.4 21:44:31 10° N 21:47:51 80° E 21:48:12 69° SE
Terra 3.7 21:47:55 16° ENE 21:48:01 16° ENE 21:50:53 10° NNE
SPOT 5 3.0 21:45:33 31° SSE 21:48:07 88° WSW 21:53:30 10° NNW
MetOp-B 4.0 21:48:36 37° SSE 21:50:47 79° ENE 21:56:09 10° N
CZ-3A R/B 4.0 21:40:31 10° W 21:51:56 27° SW 21:53:31 24° S
Cosmos 1295 Rocket 4.4 21:51:01 27° S 21:54:40 74° E 22:00:57 10° N
H-2A R/B 2.9 21:52:35 25° SSW 21:54:45 46° W 21:58:52 10° NNW
COSMOS 2487 2.6 21:51:50 10° N 21:55:09 61° NE 21:55:09 61° NE
UNK 4.4 21:49:25 10° NNE 21:55:38 89° ESE 22:00:11 18° SSW
SL-08 RB Rocket 4.1 22:01:25 45° E 22:01:35 45° ENE 22:06:00 10° N
PSLV R/B 4.4 21:58:43 10° WNW 22:01:18 37° WSW 22:01:18 37° WSW
Centaur AC-125 4.4 21:44:28 10° WSW 22:03:57 39° S 22:05:09 36° SSE
Cosmos 1023 Rocket 4.4 21:59:35 10° N 22:04:40 64° ENE 22:05:25 56° ESE
APEX 3.2 22:05:23 83° SW 22:05:32 87° WNW 22:10:10 10° NNE
Envisat 4.1 22:03:22 19° SSW 22:06:27 39° W 22:11:11 10° NNW
ARGOS 3.1 22:05:27 53° SE 22:06:32 65° ENE 22:11:50 10° N
Cosmos 489 Rocket 4.4 22:00:23 10° NNW 22:06:36 76° ENE 22:08:24 48° SE
GPS 2-05 Rocket1 3.4 22:03:48 10° W 22:06:51 57° WNW 22:06:51 57° WNW
ATLAS 5 CENTAUR R/B 3.9 22:07:28 10° NW 22:12:40 28° WSW 22:16:08 18° SSW
Cosmos 2366 rocket 4.0 22:11:33 50° SE 22:12:52 60° E 22:19:04 10° NNE
YAOGAN 6 3.4 22:15:44 47° WNW 22:15:44 47° WNW 22:18:49 10° NNW
CZ-3C R/B 3.6 21:58:50 10° WSW 22:16:14 29° SSW 22:17:14 28° S
Cosmos 1825 4.2 22:14:22 16° SW 22:16:31 26° WNW 22:19:47 10° NNW
OAO 3 Rocket 3.9 22:14:28 10° WSW 22:17:54 42° SW 22:17:54 42° SW
Okean 2 Rocket 4.0 22:20:09 31° SW 22:21:42 44° W 22:25:56 10° N
H-2A R/B 2.5 22:24:55 49° ENE 22:24:57 49° ENE 22:30:05 10° N
Cosmos 1242 Rocket 3.6 22:22:49 10° NNW 22:25:39 46° NW 22:25:39 46° NW
Cosmos 2278 Rocket 3.7 22:22:32 10° SW 22:27:40 35° WNW 22:32:49 10° N
Meteor 1-14 Rocket 4.3 22:28:35 47° SSW 22:30:14 74° W 22:35:51 10° N
Cosmos 614 Rocket 3.9 22:25:28 10° NNW 22:30:21 71° NE 22:30:21 71° NE
Meteor 1-18 Rocket 4.5 22:25:22 10° N 22:31:10 55° E 22:31:17 55° E
OAO 1 Rocket 4.4 22:26:08 10° WSW 22:30:56 72° SW 22:30:56 72° SW
Cosmos 1833 Rocket 3.4 22:26:23 10° N 22:31:40 40° ENE 22:31:41 40° ENE
Cosmos 1140 Rocket 3.7 22:33:27 10° NNW 22:38:30 58° WSW 22:38:44 57° WSW
Cosmos 2218 Rocket 4.2 22:37:00 43° SSW 22:39:09 71° W 22:45:34 10° N
SPOT 1/Viking Rocket 4.1 22:39:37 46° SW 22:40:19 49° W 22:45:22 10° NNW
Cosmos 2082 Rocket 2.2 22:45:26 10° NNW 22:50:49 74° NNE 22:50:49 74° NNE
USA 234 3.3 22:51:07 10° NE 22:57:39 74° NW 23:04:07 10° SW
Cosmos 1727 Rocket 3.9 22:52:47 10° N 22:58:58 81° W 22:59:09 80° WSW
Timation 1 Rocket 4.4 23:07:59 70° W 23:08:09 70° WNW 23:14:10 10° NNE
Terra 3.2 23:26:49 34° NW 23:26:49 34° NW 23:29:55 10° NNW
Cosmos 1821 Rocket 4.4 23:31:18 57° NNE 23:31:18 57° NNE 23:36:16 10° N
Cosmos 2369 Rocket 3.8 23:39:18 26° NE 23:39:18 26° NE 23:41:45 10° NNE
Lacrosse 5 3.9 23:48:56 22° NNE 23:48:56 22° NNE 23:50:42 10° NE
USA 229 DEB 4.1 23:41:33 10° NW 23:47:41 56° W 23:47:41 56° W
USA 229 4.1 23:41:38 10° NW 23:47:47 56° W 23:47:47 56° W
